QPF
0.00 0.00 0.00 0.00 0.00 0.00 0.00 0.00 0.00 0.00 0.00 0.00 0.00 0.00 0.00 0.00 0.00 0.00 0.00 0.00 0.00 0.00 0.00 0.00 0.00 0.00 0.00 0.00 0.00 0.00 0.00 0.00 0.00 0.00 0.00 0.00 0.00 0.00 0.00 0.00 0.00 0.00 0.00 0.00 0.00 0.00 0.00 0.00 0.00
0.00 0.00 0.00 0.00 0.00 0.00 0.00 0.00 0.00 0.00 0.00 0.00 0.00 0.00 0.00 0.00 0.00 0.00 0.00 0.00 0.00 0.00 0.00 0.00 0.00 0.00 0.00 0.00 0.00 0.00 0.00 0.00 0.00 0.00 0.00 0.00 0.00 0.00 0.00 0.00 0.00 0.00 0.00 0.00 0.00 0.00 0.00 0.00 0.00
0.00 0.00 0.00 0.00 0.00 0.00 0.00 0.00 0.00 0.00 0.00 0.00 0.00 0.00 0.00 0.00 0.00 0.00 0.00 0.00 0.00 0.00 0.00 0.00 0.00 0.00 0.00 0.00 0.00 0.00 0.00 0.00 0.00 0.00 0.00 0.00 0.00 0.00 0.00 0.00 0.00 0.00 0.00 0.00 0.00 0.00 0.00 0.00 0.00
0.00 0.00 0.00 0.00 0.00 0.00 0.00 0.00 0.00 0.00 0.00 0.00 0.00 0.00 0.00 0.00 0.00 0.00 0.00 0.00 0.00 0.00 0.00 0.00 0.00 0.00 0.00 0.00 0.00 0.00 0.00 0.00 0.00 0.00 0.00 0.00 0.00 0.00 0.00 0.00 0.00 0.00 0.00 0.00 0.00 0.00 0.00 0.00 0.00
0.00 0.00 0.00 0.00 0.00 0.00 0.00 0.00 0.00 0.00 0.00 0.00 0.00 0.00 0.00 0.00 0.00 0.00 0.00 0.00 0.00 0.00 0.00 0.00 0.00 0.00 0.00 0.00 0.00 0.00 0.00 0.00 0.00 0.00 0.00 0.00 0.00 0.00 0.00 0.00 0.02 0.01 0.00 0.00 0.00 0.00 0.00 0.00 0.00
0.00 0.00 0.00 0.00 0.00 0.00 0.00 0.00 0.00 0.00 0.00 0.00 0.00 0.00 0.00 0.00 0.00 0.00 0.00 0.00 0.00 0.00 0.00 0.01 0.00 0.00 0.00 0.00 0.00 0.00 0.00 0.00 0.00 0.00 0.00 0.00 0.00 0.00 0.00 0.01 0.01 0.01 0.01 0.00 0.00 0.00 0.00 0.00 0.00
0.00 0.00 0.00 0.00 0.00 0.00 0.00 0.00 0.00 0.00 0.00 0.00 0.00 0.00 0.00 0.00 0.00 0.00 0.00 0.00 0.00 0.00 0.00 0.01 0.01 0.00 0.00 0.00 0.00 0.00 0.00 0.00 0.00 0.00 0.00 0.00 0.00 0.00 0.00 0.00 0.00 0.00 0.00 0.00 0.00 0.00 0.00 0.00 0.00
0.00 0.00 0.00 0.00 0.00 0.00 0.00 0.00 0.00 0.00 0.00 0.00 0.00 0.00 0.00 0.00 0.00 0.00 0.00 0.00 0.00 0.00 0.00 0.00 0.00 0.00 0.00 0.00 0.00 0.00 0.00 0.00 0.00 0.00 0.00 0.00 0.00 0.00 0.00 0.00 0.00 0.00 0.00 0.00 0.00 0.00 0.00 0.00 0.00
0.00 0.00 0.00 0.00 0.00 0.00 0.00 0.00 0.00 0.00 0.00 0.00 0.00 0.00 0.00 0.00 0.00 0.00 0.00 0.00 0.00 0.00 0.00 0.00 0.00 0.00 0.00 0.00 0.00 0.00 0.00 0.00 0.00 0.00 0.00 0.00 0.00 0.00 0.00 0.00 0.00 0.00 0.00 0.01 0.00 0.00 0.00 0.00 0.00
0.00 0.00 0.00 0.00 0.00 0.00 0.00 0.00 0.00 0.00 0.00 0.00 0.00 0.00 0.00 0.00 0.00 0.00 0.00 0.00 0.00 0.00 0.00 0.00 0.00 0.00 0.00 0.00 0.00 0.00 0.00 0.00 0.00 0.00 0.00 0.00 0.00 0.00 0.00 0.00 0.00 0.00 0.00 0.00 0.00 0.00 0.00 0.00 0.00
0.00 0.00 0.00 0.00 0.00 0.00 0.00 0.00 0.00 0.00 0.00 0.00 0.00 0.00 0.00 0.00 0.00 0.00 0.00 0.00 0.00 0.00 0.00 0.00 0.00 0.00 0.00 0.00 0.00 0.00 0.00 0.00 0.00 0.00 0.00 0.00 0.00 0.00 0.00 0.00 0.00 0.00 0.00 0.00 0.00 0.00 0.00 0.00 0.00
0.00 0.00 0.00 0.00 0.00 0.00 0.00 0.00 0.00 0.00 0.00 0.00 0.00 0.00 0.00 0.00 0.00 0.00 0.00 0.00 0.00 0.00 0.00 0.00 0.00 0.00 0.00 0.00 0.00 0.00 0.00 0.00 0.00 0.00 0.00 0.00 0.00 0.00 0.00 0.00 0.00 0.00 0.00 0.00 0.00 0.00 0.00 0.00 0.00
0.00 0.00 0.00 0.00 0.00 0.00 0.00 0.00 0.00 0.00 0.00 0.00 0.00 0.00 0.00 0.00 0.00 0.00 0.00 0.00 0.00 0.00 0.00 0.00 0.00 0.00 0.00 0.00 0.00 0.00 0.00 0.00 0.00 0.00 0.00 0.00 0.00 0.00 0.00 0.00 0.00 0.00 0.00 0.00 0.00 0.00 0.00 0.00 0.00
0.00 0.00 0.00 0.00 0.00 0.00 0.00 0.00 0.00 0.00 0.00 0.00 0.00 0.00 0.00 0.00 0.00 0.00 0.00 0.00 0.00 0.00 0.01 0.00 0.00 0.00 0.00 0.00 0.00 0.00 0.00 0.00 0.00 0.00 0.00 0.00 0.00 0.00 0.00 0.00 0.00 0.00 0.00 0.00 0.00 0.00 0.00 0.00 0.00
0.00 0.00 0.00 0.00 0.00 0.00 0.00 0.00 0.00 0.00 0.00 0.00 0.00 0.00 0.00 0.00 0.00 0.00 0.00 0.00 0.00 0.00 0.00 0.00 0.00 0.01 0.00 0.00 0.00 0.00 0.00 0.00 0.00 0.00 0.00 0.00 0.00 0.00 0.00 0.00 0.00 0.00 0.00 0.01 0.01 0.00 0.00 0.00 0.00
0.00 0.00 0.00 0.00 0.00 0.00 0.00 0.00 0.00 0.00 0.00 0.00 0.00 0.00 0.00 0.00 0.00 0.00 0.00 0.00 0.00 0.00 0.00 0.00 0.00 0.02 0.01 0.00 0.01 0.01 0.00 0.00 0.00 0.00 0.00 0.00 0.00 0.00 0.00 0.00 0.00 0.00 0.00 0.00 0.02 0.00 0.00 0.00 0.00
0.00 0.00 0.00 0.00 0.00 0.00 0.00 0.00 0.00 0.00 0.00 0.00 0.00 0.00 0.00 0.00 0.00 0.00 0.00 0.00 0.00 0.00 0.00 0.00 0.00 0.01 0.01 0.00 0.02 0.05 0.03 0.02 0.01 0.00 0.00 0.00 0.00 0.00 0.00 0.00 0.00 0.02 0.01 0.02 0.01 0.00 0.02 0.02 0.00
0.00 0.00 0.00 0.00 0.00 0.00 0.00 0.00 0.00 0.00 0.00 0.00 0.00 0.00 0.00 0.00 0.00 0.00 0.00 0.01 0.02 0.00 0.01 0.00 0.00 0.00 0.01 0.00 0.00 0.03 0.08 0.14 0.11 0.01 0.00 0.00 0.00 0.00 0.00 0.00 0.00 0.00 0.00 0.03 0.02 0.01 0.01 0.00 0.01
0.00 0.00 0.00 0.00 0.00 0.00 0.00 0.00 0.00 0.00 0.02 0.00 0.00 0.00 0.00 0.00 0.00 0.02 0.01 0.03 0.01 0.00 0.01 0.01 0.00 0.01 0.02 0.01 0.00 0.02 0.04 0.11 0.08 0.01 0.00 0.01 0.00 0.00 0.00 0.01 0.02 0.00 0.00 0.04 0.02 0.02 0.03 0.02 0.02
0.00 0.00 0.00 0.00 0.00 0.00 0.00 0.00 0.00 0.00 0.01 0.00 0.00 0.00 0.00 0.01 0.04 0.04 0.04 0.04 0.01 0.00 0.00 0.00 0.01 0.01 0.02 0.02 0.03 0.02 0.02 0.03 0.02 0.01 0.01 0.04 0.07 0.12 0.15 0.22 0.21 0.18 0.24 0.17 0.11 0.06 0.04 0.06 0.07
0.00 0.00 0.00 0.00 0.00 0.00 0.00 0.00 0.01 0.01 0.02 0.02 0.04 0.04 0.05 0.07 0.07 0.04 0.03 0.05 0.06 0.01 0.00 0.01 0.02 0.01 0.01 0.01 0.01 0.00 0.01 0.06 0.13 0.13 0.14 0.16 0.24 0.20 0.18 0.20 0.26 0.29 0.25 0.22 0.17 0.16 0.12 0.10 0.13
0.00 0.00 0.00 0.00 0.00 0.00 0.00 0.00 0.01 0.00 0.00 0.00 0.01 0.02 0.03 0.03 0.02 0.01 0.02 0.02 0.04 0.01 0.01 0.01 0.01 0.01 0.03 0.03 0.01 0.02 0.03 0.02 0.05 0.15 0.24 0.21 0.17 0.16 0.15 0.15 0.15 0.19 0.18 0.13 0.10 0.11 0.08 0.03 0.02
0.00 0.00 0.00 0.00 0.00 0.00 0.00 0.00 0.00 0.02 0.01 0.00 0.00 0.00 0.01 0.02 0.01 0.01 0.01 0.00 0.00 0.00 0.00 0.00 0.01 0.00 0.00 0.02 0.04 0.06 0.05 0.06 0.05 0.06 0.07 0.04 0.05 0.04 0.04 0.04 0.02 0.04 0.10 0.09 0.07 0.08 0.06 0.03 0.01
0.00 0.00 0.00 0.00 0.00 0.00 0.00 0.00 0.00 0.00 0.00 0.00 0.00 0.00 0.00 0.01 0.01 0.00 0.00 0.00 0.00 0.00 0.00 0.00 0.00 0.00 0.00 0.00 0.00 0.00 0.01 0.01 0.04 0.05 0.07 0.05 0.01 0.00 0.00 0.01 0.02 0.02 0.03 0.01 0.01 0.01 0.00 0.00 0.00
0.00 0.00 0.00 0.00 0.00 0.00 0.00 0.00 0.00 0.00 0.00 0.00 0.00 0.00 0.00 0.02 0.01 0.01 0.00 0.00 0.00 0.00 0.00 0.00 0.00 0.00 0.00 0.00 0.00 0.00 0.00 0.00 0.00 0.00 0.00 0.00 0.00 0.00 0.00 0.00 0.00 0.00 0.00 0.00 0.00 0.00 0.00 0.00 0.00
0.00 0.00 0.00 0.00 0.00 0.00 0.00 0.00 0.00 0.00 0.00 0.00 0.00 0.00 0.00 0.00 0.02 0.01 0.00 0.00 0.00 0.00 0.00 0.00 0.00 0.00 0.00 0.00 0.00 0.00 0.00 0.00 0.00 0.00 0.00 0.00 0.00 0.00 0.00 0.00 0.00 0.00 0.00 0.00 0.00 0.00 0.00 0.00 0.00
0.00 0.00 0.00 0.00 0.00 0.00 0.00 0.00 0.00 0.00 0.00 0.00 0.00 0.00 0.00 0.00 0.02 0.01 0.01 0.00 0.00 0.00 0.00 0.00 0.00 0.00 0.00 0.00 0.00 0.00 0.00 0.00 0.00 0.00 0.00 0.00 0.00 0.00 0.00 0.00 0.00 0.00 0.00 0.00 0.00 0.00 0.00 0.00 0.00
0.00 0.00 0.00 0.00 0.00 0.00 0.00 0.00 0.00 0.00 0.00 0.00 0.00 0.00 0.00 0.00 0.02 0.03 0.01 0.00 0.00 0.00 0.00 0.00 0.00 0.00 0.00 0.00 0.00 0.00 0.00 0.00 0.00 0.00 0.00 0.00 0.00 0.00 0.00 0.00 0.00 0.00 0.00 0.00 0.00 0.00 0.00 0.00 0.00
0.00 0.00 0.00 0.00 0.00 0.00 0.00 0.00 0.00 0.00 0.00 0.00 0.00 0.00 0.00 0.00 0.04 0.02 0.01 0.00 0.00 0.00 0.00 0.00 0.00 0.00 0.00 0.00 0.00 0.00 0.00 0.00 0.00 0.00 0.00 0.00 0.00 0.00 0.00 0.00 0.00 0.00 0.00 0.00 0.00 0.00 0.00 0.00 0.00
0.00 0.00 0.00 0.00 0.00 0.00 0.00 0.00 0.00 0.00 0.00 0.00 0.00 0.00 0.00 0.00 0.00 0.00 0.00 0.00 0.00 0.00 0.00 0.00 0.00 0.00 0.00 0.00 0.00 0.00 0.00 0.00 0.00 0.00 0.00 0.00 0.00 0.00 0.00 0.00 0.00 0.00 0.00 0.00 0.00 0.00 0.00 0.00 0.00
MSLP
1011.23 1011.55 1011.69 1011.90 1013.19 1013.39 1012.51 1011.07 1010.13 1009.71 1009.20 1008.51 1008.00 1008.07 1008.37 1008.92 1009.72 1011.49 1011.20 1011.55 1011.79 1012.64 1013.22 1013.50 1014.19 1014.53 1014.90 1015.06 1015.36 1015.63 1015.88 1016.24 1016.46 1016.68 1017.05 1017.44 1017.80 1018.09 1018.43 1018.54 1018.71 1018.89 1019.00 1019.15 1019.26 1019.38 1019.43 1019.52 1019.57
1011.50 1011.84 1012.21 1012.96 1013.80 1013.86 1012.17 1010.58 1009.85 1009.13 1008.77 1008.45 1008.17 1007.89 1008.30 1009.25 1009.91 1010.95 1011.68 1011.90 1011.94 1012.49 1013.21 1013.68 1014.12 1014.49 1014.92 1015.24 1015.58 1015.88 1016.16 1016.50 1016.85 1017.19 1017.41 1017.78 1018.01 1018.30 1018.60 1018.80 1018.93 1019.03 1019.27 1019.37 1019.58 1019.71 1019.80 1019.94 1020.06
1011.42 1011.71 1013.00 1013.79 1014.48 1013.74 1011.84 1009.94 1009.18 1008.90 1008.54 1008.60 1008.07 1007.88 1008.57 1009.70 1010.40 1011.13 1011.39 1011.91 1012.28 1012.81 1013.30 1013.84 1014.23 1014.64 1015.02 1015.32 1015.69 1016.07 1016.43 1016.73 1017.12 1017.41 1017.72 1018.01 1018.29 1018.55 1018.78 1018.94 1019.09 1019.28 1019.45 1019.69 1019.90 1020.01 1020.11 1020.22 1020.38
1011.64 1012.52 1013.92 1014.22 1014.21 1012.72 1011.20 1009.61 1009.12 1008.82 1008.57 1008.37 1008.45 1008.78 1009.35 1010.17 1010.70 1011.08 1011.66 1012.22 1012.62 1013.13 1013.54 1013.89 1014.49 1014.88 1015.22 1015.57 1015.87 1016.21 1016.62 1016.97 1017.32 1017.66 1017.90 1018.24 1018.50 1018.78 1018.97 1019.15 1019.31 1019.46 1019.75 1019.97 1020.13 1020.34 1020.43 1020.65 1020.78
1012.13 1013.36 1014.37 1014.49 1013.60 1012.14 1010.54 1009.43 1009.03 1008.75 1008.34 1008.10 1008.42 1009.29 1010.27 1010.97 1011.14 1011.49 1011.95 1012.40 1012.64 1013.28 1013.81 1014.18 1014.69 1015.12 1015.42 1015.80 1016.17 1016.47 1016.85 1017.15 1017.52 1017.90 1018.24 1018.49 1018.85 1018.94 1019.19 1019.37 1019.54 1019.70 1019.97 1020.19 1020.32 1020.53 1020.75 1020.81 1021.01
1012.99 1013.82 1014.68 1014.24 1013.12 1011.52 1010.14 1009.04 1008.82 1008.51 1008.08 1007.93 1008.65 1009.60 1011.08 1011.82 1012.18 1012.47 1012.74 1012.48 1012.74 1013.33 1013.92 1014.46 1014.89 1015.27 1015.60 1015.94 1016.33 1016.72 1017.02 1017.44 1017.80 1018.14 1018.33 1018.71 1018.96 1019.20 1019.31 1019.50 1019.70 1019.91 1020.09 1020.35 1020.64 1020.71 1020.89 1021.03 1021.17
1012.91 1013.90 1014.07 1013.52 1012.42 1011.02 1009.40 1008.46 1008.48 1008.07 1007.89 1007.93 1008.26 1009.77 1011.33 1012.14 1012.47 1012.86 1013.21 1013.38 1013.32 1013.44 1014.08 1014.60 1015.13 1015.52 1015.80 1016.10 1016.48 1016.87 1017.23 1017.54 1017.95 1018.21 1018.48 1018.80 1019.13 1019.23 1019.42 1019.60 1019.83 1020.04 1020.32 1020.46 1020.86 1021.01 1021.09 1021.24 1021.32
1012.70 1013.58 1013.77 1012.91 1011.98 1010.21 1008.80 1008.19 1007.61 1007.57 1007.05 1007.25 1007.82 1009.28 1010.83 1011.56 1012.22 1012.99 1013.55 1013.75 1013.83 1013.97 1014.28 1014.70 1015.23 1015.59 1015.98 1016.40 1016.67 1017.03 1017.43 1017.77 1018.23 1018.45 1018.73 1018.86 1019.19 1019.45 1019.54 1019.70 1019.96 1020.20 1020.47 1020.64 1020.88 1021.15 1021.15 1021.24 1021.34
1012.46 1013.41 1013.30 1012.21 1011.23 1009.71 1008.66 1008.24 1007.12 1006.37 1006.47 1006.90 1007.75 1008.35 1009.40 1011.28 1012.14 1013.08 1013.94 1014.22 1014.24 1014.42 1014.68 1014.86 1015.31 1015.75 1016.07 1016.50 1016.74 1017.21 1017.56 1017.92 1018.35 1018.68 1019.03 1019.28 1019.51 1019.67 1019.82 1019.90 1020.10 1020.36 1020.48 1020.83 1020.87 1021.10 1021.18 1021.19 1021.31
1012.23 1012.81 1011.92 1010.96 1009.85 1009.11 1008.59 1008.28 1007.71 1006.87 1006.87 1007.55 1008.40 1009.18 1010.04 1011.36 1012.12 1012.77 1013.45 1013.92 1014.26 1014.50 1014.81 1015.13 1015.45 1015.91 1016.29 1016.46 1016.76 1017.24 1017.55 1017.97 1018.41 1018.75 1019.01 1019.37 1019.67 1019.89 1020.02 1020.11 1020.17 1020.38 1020.59 1020.85 1020.97 1021.06 1021.21 1021.21 1021.33
1011.70 1011.35 1010.87 1010.02 1009.24 1008.84 1008.41 1007.88 1007.34 1006.98 1007.35 1007.17 1007.89 1009.61 1010.52 1011.68 1012.42 1012.85 1013.29 1013.38 1013.29 1013.93 1014.76 1015.05 1015.41 1015.86 1016.25 1016.51 1016.99 1017.33 1017.64 1017.99 1018.48 1018.77 1019.07 1019.42 1019.77 1020.03 1020.18 1020.42 1020.46 1020.58 1020.72 1020.98 1021.03 1021.10 1021.12 1021.27 1021.39
1011.11 1010.41 1010.10 1009.51 1008.75 1008.69 1008.37 1007.90 1007.47 1007.05 1007.19 1006.68 1007.30 1008.44 1010.00 1011.48 1012.12 1012.66 1013.19 1013.66 1014.04 1013.96 1014.39 1014.93 1015.27 1015.66 1016.27 1016.72 1017.05 1017.40 1017.70 1017.96 1018.35 1018.68 1019.07 1019.41 1019.77 1020.11 1020.33 1020.55 1020.66 1020.65 1020.88 1021.05 1021.30 1021.32 1021.25 1021.42 1021.45
1010.41 1009.75 1009.33 1008.90 1008.76 1008.76 1008.40 1007.99 1007.77 1007.39 1007.25 1007.31 1008.16 1009.48 1010.52 1011.38 1012.09 1012.71 1013.10 1013.65 1014.26 1014.45 1014.60 1014.96 1015.48 1015.90 1016.27 1016.57 1017.08 1017.50 1017.84 1018.01 1018.26 1018.54 1018.86 1019.21 1019.63 1019.90 1020.15 1020.40 1020.62 1020.67 1020.74 1020.96 1021.18 1021.39 1021.31 1021.37 1021.43
1008.93 1008.88 1008.55 1008.46 1008.27 1008.34 1008.28 1008.02 1007.69 1007.71 1007.54 1008.15 1008.96 1010.30 1011.20 1011.51 1011.96 1012.52 1012.99 1013.60 1014.14 1014.61 1014.68 1014.98 1015.47 1015.74 1016.29 1016.54 1016.90 1017.44 1017.86 1018.09 1018.39 1018.56 1018.75 1019.07 1019.40 1019.74 1019.89 1020.10 1020.29 1020.46 1020.55 1020.63 1020.86 1021.08 1021.23 1021.13 1021.27
1008.44 1008.61 1008.22 1007.89 1007.57 1007.80 1007.76 1008.06 1007.91 1008.24 1008.22 1008.94 1010.01 1010.67 1011.27 1011.71 1012.05 1012.35 1012.73 1013.28 1013.80 1014.40 1014.78 1015.25 1015.74 1016.01 1016.42 1016.91 1017.03 1017.45 1017.81 1018.10 1018.38 1018.46 1018.62 1018.88 1019.21 1019.50 1019.67 1019.94 1020.02 1019.98 1020.23 1020.49 1020.59 1020.69 1021.01 1021.07 1021.07
1008.24 1008.21 1007.87 1007.04 1007.15 1007.31 1007.38 1008.46 1008.40 1008.97 1009.11 1009.98 1010.66 1011.30 1011.88 1012.44 1012.76 1012.82 1012.84 1013.32 1013.83 1014.42 1014.89 1015.23 1015.71 1016.13 1016.38 1016.73 1017.10 1017.47 1017.84 1018.12 1018.43 1018.60 1018.65 1018.71 1018.88 1019.17 1019.52 1019.67 1019.61 1019.61 1019.95 1020.21 1020.37 1020.41 1020.65 1020.76 1020.93
1008.49 1008.18 1007.75 1007.21 1006.94 1007.20 1008.00 1008.93 1009.13 1009.63 1010.25 1010.80 1011.59 1012.20 1012.71 1013.16 1013.37 1013.55 1013.58 1013.59 1013.80 1014.14 1014.64 1015.05 1015.44 1015.87 1016.31 1016.56 1017.05 1017.45 1017.84 1018.32 1018.53 1018.73 1018.90 1018.86 1018.80 1018.92 1019.14 1019.20 1019.33 1019.69 1019.90 1020.16 1020.42 1020.29 1020.27 1020.37 1020.48
1008.31 1007.97 1007.67 1007.43 1007.30 1007.52 1008.58 1009.36 1009.94 1010.47 1010.96 1011.65 1012.51 1013.06 1013.44 1013.85 1014.20 1014.11 1014.02 1014.04 1014.04 1014.11 1014.40 1014.81 1015.25 1015.69 1016.21 1016.67 1017.13 1017.56 1017.95 1018.10 1018.23 1018.32 1018.44 1018.58 1018.67 1018.68 1018.89 1018.98 1019.02 1019.26 1019.63 1019.99 1020.10 1020.28 1020.32 1020.42 1019.89
1007.74 1007.73 1007.84 1007.37 1007.14 1007.78 1008.86 1009.98 1010.94 1011.53 1012.15 1012.65 1013.22 1013.67 1014.13 1014.50 1014.83 1014.75 1014.64 1014.91 1014.78 1014.61 1014.74 1014.90 1015.25 1015.64 1016.15 1016.80 1017.43 1018.01 1018.24 1018.33 1018.53 1018.35 1018.31 1018.21 1018.22 1018.26 1018.39 1018.48 1018.50 1018.74 1019.08 1019.42 1019.83 1020.15 1020.39 1020.49 1020.35
1007.59 1007.59 1007.40 1007.05 1007.23 1008.15 1009.72 1011.41 1011.80 1012.18 1012.92 1013.29 1013.96 1014.43 1014.79 1015.12 1015.40 1015.55 1015.27 1015.31 1015.58 1015.57 1015.44 1015.47 1015.70 1015.88 1016.16 1016.56 1017.07 1017.29 1017.59 1018.06 1018.48 1018.67 1018.62 1018.49 1018.27 1018.34 1018.56 1018.90 1019.08 1018.74 1019.19 1019.45 1019.59 1019.90 1020.44 1020.71 1020.77
1007.27 1007.37 1007.20 1007.65 1008.16 1009.17 1009.99 1012.20 1012.72 1012.71 1012.93 1013.55 1014.08 1014.66 1015.09 1015.57 1015.71 1016.06 1016.25 1016.24 1016.38 1016.25 1016.27 1016.34 1016.39 1016.49 1016.57 1016.69 1016.91 1017.32 1017.56 1017.97 1018.57 1018.87 1019.09 1019.06 1018.78 1018.60 1018.74 1018.63 1018.84 1019.20 1019.35 1019.34 1019.84 1019.89 1019.61 1020.71 1021.18
1006.84 1006.62 1007.01 1007.81 1008.54 1010.04 1010.35 1012.37 1013.04 1013.08 1013.29 1013.61 1014.22 1014.79 1015.27 1015.78 1016.35 1016.65 1016.86 1017.09 1017.13 1017.22 1016.98 1017.01 1017.05 1017.01 1017.12 1017.12 1017.29 1017.44 1017.74 1018.24 1018.72 1019.02 1019.18 1019.24 1019.14 1018.74 1018.84 1019.10 1019.20 1019.36 1019.32 1019.43 1019.68 1019.64 1019.08 1019.66 1020.66
1006.50 1006.70 1007.63 1008.13 1009.12 1010.13 1010.82 1011.78 1012.94 1013.24 1013.52 1013.57 1013.97 1014.62 1015.34 1015.80 1016.44 1017.10 1017.10 1017.05 1017.31 1017.45 1017.43 1017.53 1017.59 1017.67 1017.82 1017.77 1017.98 1018.35 1018.69 1019.01 1019.15 1019.59 1019.67 1019.91 1019.78 1019.65 1019.56 1019.61 1019.41 1019.33 1019.27 1019.35 1019.54 1019.67 1019.72 1019.79 1020.04
1006.61 1007.72 1008.56 1009.38 1010.32 1011.36 1011.42 1011.85 1012.82 1012.93 1011.91 1012.32 1013.37 1014.33 1015.30 1015.91 1016.36 1016.77 1017.09 1017.40 1017.41 1017.57 1017.76 1017.98 1018.01 1018.29 1018.43 1018.62 1018.86 1019.16 1019.40 1019.77 1019.92 1020.06 1020.35 1020.59 1020.60 1020.56 1020.58 1020.28 1020.13 1020.05 1019.77 1019.61 1019.47 1019.50 1019.49 1019.54 1019.50
1006.93 1008.27 1010.26 1011.31 1011.94 1012.50 1012.14 1012.26 1011.58 1011.16 1011.32 1011.72 1012.39 1013.78 1014.91 1015.86 1016.44 1016.88 1017.02 1017.16 1017.61 1017.79 1017.88 1018.03 1018.26 1018.69 1018.83 1019.02 1019.42 1019.72 1020.03 1020.40 1020.38 1020.78 1021.07 1021.27 1021.41 1021.56 1021.33 1020.90 1020.76 1020.57 1020.36 1020.17 1019.98 1019.79 1019.75 1019.63 1019.54
1007.38 1008.24 1010.35 1012.14 1013.38 1013.12 1012.49 1012.34 1011.35 1011.11 1011.38 1011.58 1011.77 1013.13 1014.64 1015.60 1016.06 1016.52 1017.23 1017.21 1017.60 1017.90 1018.05 1018.13 1018.22 1018.67 1018.88 1019.25 1019.78 1020.06 1020.21 1020.43 1020.71 1021.02 1021.30 1021.59 1021.83 1021.92 1021.65 1021.44 1021.25 1021.11 1020.86 1020.68 1020.54 1020.42 1020.39 1020.27 1020.11
1007.56 1008.79 1010.00 1012.08 1013.91 1013.89 1013.26 1012.53 1011.22 1011.30 1011.53 1011.72 1012.20 1013.05 1013.92 1014.88 1015.72 1016.44 1017.15 1017.33 1017.68 1017.94 1018.13 1017.80 1018.05 1018.47 1018.98 1019.34 1019.66 1020.02 1020.30 1020.55 1021.04 1021.39 1021.52 1021.67 1021.80 1021.80 1021.80 1021.77 1021.62 1021.48 1021.36 1021.24 1021.08 1020.97 1020.93 1020.85 1020.69
1006.59 1008.93 1010.51 1012.21 1014.06 1014.71 1013.98 1013.37 1012.26 1011.98 1011.94 1012.37 1012.74 1012.93 1013.75 1014.78 1015.78 1016.38 1016.75 1016.96 1017.28 1017.64 1018.01 1017.87 1018.20 1018.28 1018.73 1019.30 1019.66 1020.03 1020.41 1020.76 1021.22 1021.53 1021.76 1021.91 1022.03 1022.05 1021.95 1021.88 1021.80 1021.73 1021.63 1021.55 1021.56 1021.39 1021.24 1021.10 1021.01
1008.29 1009.40 1010.99 1012.33 1013.64 1014.63 1014.67 1013.60 1012.05 1011.98 1012.01 1012.22 1012.46 1012.80 1013.29 1014.09 1015.00 1015.61 1015.97 1016.34 1016.54 1017.25 1017.78 1017.92 1018.16 1018.09 1018.64 1019.04 1019.54 1020.04 1020.68 1021.00 1021.28 1021.49 1021.74 1021.94 1022.10 1022.05 1022.18 1022.05 1021.94 1021.82 1021.74 1021.60 1021.58 1021.50 1021.38 1021.19 1020.95
1007.64 1008.87 1010.16 1012.40 1014.36 1014.76 1014.56 1013.62 1012.81 1012.77 1012.41 1012.55 1012.41 1012.51 1013.02 1013.48 1014.05 1014.61 1015.25 1015.84 1016.41 1017.10 1017.58 1017.79 1017.90 1018.10 1018.43 1018.73 1019.33 1019.98 1020.57 1020.89 1021.47 1021.72 1021.88 1021.86 1021.95 1022.19 1022.22 1022.13 1022.05 1021.98 1021.80 1021.70 1021.65 1021.57 1021.43 1021.21 1021.04
Thickness
5797 5795 5795 5787 5753 5746 5749 5769 5791 5787 5791 5811 5822 5814 5809 5813 5806 5778 5811 5810 5808 5802 5797 5794 5789 5785 5781 5779 5777 5776 5774 5771 5770 5769 5766 5763 5759 5757 5756 5755 5754 5751 5750 5749 5749 5748 5748 5749 5749
5794 5793 5787 5766 5735 5730 5748 5782 5783 5795 5805 5815 5816 5818 5812 5800 5811 5802 5801 5807 5806 5801 5795 5791 5787 5785 5781 5778 5774 5772 5771 5769 5766 5764 5763 5760 5758 5757 5755 5753 5752 5751 5748 5747 5746 5746 5746 5745 5744
5792 5792 5770 5748 5725 5728 5748 5784 5794 5803 5809 5806 5810 5821 5813 5802 5806 5803 5807 5806 5802 5798 5794 5788 5784 5782 5779 5777 5774 5770 5767 5766 5763 5761 5759 5758 5755 5754 5754 5752 5751 5749 5748 5746 5745 5744 5744 5744 5743
5784 5776 5761 5739 5730 5749 5768 5790 5795 5799 5807 5811 5809 5799 5809 5810 5803 5806 5806 5802 5798 5794 5791 5787 5781 5778 5775 5772 5771 5769 5765 5763 5760 5757 5757 5754 5753 5751 5751 5750 5749 5748 5746 5744 5743 5742 5742 5740 5740
5775 5759 5735 5733 5736 5755 5774 5789 5795 5793 5801 5807 5810 5795 5792 5798 5805 5804 5801 5800 5796 5793 5789 5784 5778 5775 5772 5769 5766 5765 5763 5761 5758 5755 5752 5751 5748 5749 5747 5747 5746 5745 5744 5743 5742 5740 5739 5739 5738
5751 5749 5724 5727 5736 5761 5776 5789 5793 5794 5801 5809 5800 5794 5786 5793 5792 5793 5793 5796 5795 5791 5786 5781 5777 5773 5769 5766 5762 5760 5759 5757 5755 5753 5752 5748 5747 5744 5745 5744 5743 5743 5743 5741 5739 5739 5738 5737 5737
5746 5735 5730 5738 5741 5759 5774 5792 5787 5790 5795 5798 5808 5786 5785 5785 5790 5790 5788 5788 5790 5788 5783 5778 5773 5769 5766 5763 5760 5757 5755 5754 5751 5751 5750 5747 5744 5744 5742 5742 5741 5741 5740 5741 5737 5736 5736 5736 5736
5746 5740 5735 5738 5738 5756 5781 5786 5799 5795 5800 5819 5816 5786 5780 5789 5793 5789 5784 5783 5784 5784 5780 5777 5771 5766 5763 5759 5757 5755 5752 5751 5747 5747 5745 5745 5741 5739 5740 5740 5738 5738 5738 5738 5737 5732 5735 5734 5734
5750 5724 5723 5741 5746 5761 5777 5772 5799 5817 5810 5815 5815 5811 5808 5796 5792 5783 5777 5777 5778 5778 5776 5773 5769 5764 5762 5758 5756 5752 5750 5748 5745 5743 5741 5739 5738 5736 5736 5737 5735 5733 5736 5734 5736 5732 5731 5733 5733
5738 5720 5736 5753 5765 5766 5768 5772 5782 5796 5800 5800 5800 5805 5800 5793 5788 5781 5777 5775 5774 5773 5773 5771 5766 5761 5758 5756 5755 5751 5749 5746 5743 5741 5740 5738 5736 5734 5732 5732 5732 5731 5732 5731 5732 5731 5729 5730 5731
5738 5734 5747 5759 5766 5768 5765 5772 5788 5789 5786 5800 5797 5794 5793 5786 5783 5780 5777 5778 5780 5778 5772 5770 5766 5760 5757 5754 5752 5750 5747 5745 5741 5739 5738 5736 5733 5731 5730 5727 5728 5728 5728 5728 5729 5730 5729 5728 5729
5736 5747 5751 5759 5768 5764 5763 5773 5777 5790 5791 5810 5807 5804 5796 5785 5784 5781 5777 5773 5770 5773 5772 5769 5765 5761 5755 5751 5749 5747 5744 5742 5740 5737 5735 5734 5731 5729 5727 5725 5724 5725 5724 5725 5725 5725 5727 5725 5726
5736 5747 5751 5755 5755 5757 5763 5763 5770 5779 5794 5802 5798 5792 5786 5785 5782 5781 5778 5772 5766 5765 5767 5766 5762 5758 5753 5750 5746 5744 5741 5739 5738 5736 5734 5733 5730 5728 5726 5724 5722 5721 5721 5722 5722 5721 5722 5723 5724
5745 5742 5750 5752 5753 5757 5756 5761 5773 5775 5790 5787 5786 5780 5779 5782 5781 5778 5776 5770 5765 5763 5761 5761 5759 5755 5751 5749 5745 5741 5738 5736 5735 5734 5732 5730 5729 5727 5726 5724 5722 5720 5720 5719 5720 5720 5719 5721 5720
5744 5738 5744 5748 5757 5757 5759 5752 5760 5768 5781 5777 5773 5776 5777 5778 5780 5777 5776 5770 5766 5763 5759 5755 5752 5749 5747 5744 5742 5740 5737 5734 5732 5732 5731 5729 5727 5726 5725 5723 5722 5721 5719 5717 5718 5718 5718 5718 5717
5733 5734 5727 5754 5751 5760 5758 5730 5758 5763 5767 5763 5767 5768 5767 5765 5767 5768 5771 5768 5762 5759 5755 5752 5750 5746 5745 5743 5739 5736 5734 5732 5729 5728 5729 5728 5726 5725 5722 5721 5721 5721 5718 5716 5716 5717 5717 5717 5715
5712 5713 5721 5735 5749 5752 5747 5731 5752 5759 5756 5753 5754 5755 5756 5755 5755 5756 5759 5760 5759 5757 5754 5751 5748 5745 5742 5740 5736 5733 5730 5725 5724 5723 5723 5723 5723 5721 5720 5720 5719 5718 5716 5713 5711 5715 5716 5717 5715
5706 5710 5718 5720 5741 5743 5729 5731 5738 5748 5749 5744 5743 5743 5742 5743 5742 5746 5749 5751 5752 5753 5751 5749 5746 5741 5739 5735 5732 5730 5725 5722 5721 5720 5720 5720 5718 5718 5717 5715 5716 5715 5712 5710 5708 5709 5710 5711 5716
5714 5710 5707 5717 5735 5737 5727 5723 5725 5731 5730 5732 5731 5731 5732 5731 5731 5732 5736 5735 5739 5742 5742 5742 5740 5738 5734 5728 5723 5718 5715 5716 5714 5713 5715 5716 5716 5716 5715 5713 5712 5710 5708 5707 5705 5703 5701 5700 5702
5708 5706 5706 5725 5732 5726 5714 5703 5713 5721 5721 5726 5721 5719 5721 5720 5718 5719 5724 5726 5726 5727 5729 5732 5731 5729 5729 5725 5720 5719 5714 5711 5707 5706 5706 5708 5709 5708 5707 5704 5700 5703 5700 5697 5696 5695 5692 5690 5687
5705 5704 5712 5716 5718 5718 5713 5693 5699 5714 5720 5718 5716 5716 5715 5711 5713 5711 5710 5711 5712 5716 5718 5718 5719 5719 5719 5718 5716 5713 5711 5705 5701 5699 5696 5695 5697 5698 5697 5699 5690 5690 5690 5689 5679 5687 5683 5678 5672
5703 5717 5723 5716 5706 5682 5708 5665 5689 5700 5704 5710 5710 5710 5709 5707 5703 5703 5702 5700 5700 5700 5705 5706 5706 5708 5708 5708 5707 5706 5704 5699 5695 5692 5691 5687 5687 5688 5687 5684 5683 5681 5682 5682 5679 5679 5676 5675 5661
5708 5721 5716 5712 5697 5693 5698 5681 5686 5690 5693 5701 5706 5705 5701 5702 5699 5692 5693 5695 5694 5694 5694 5695 5696 5697 5696 5695 5694 5691 5688 5686 5685 5681 5678 5676 5675 5677 5677 5676 5675 5674 5673 5672 5671 5668 5667 5661 5657
5709 5702 5695 5684 5681 5668 5691 5682 5672 5677 5705 5713 5707 5702 5697 5696 5694 5692 5690 5687 5689 5688 5687 5686 5685 5683 5683 5682 5680 5678 5676 5673 5670 5668 5665 5661 5661 5661 5660 5660 5661 5661 5662 5663 5662 5659 5659 5658 5657
5699 5684 5650 5657 5646 5655 5668 5671 5684 5701 5706 5711 5711 5702 5696 5691 5689 5687 5685 5685 5681 5680 5680 5680 5678 5674 5673 5671 5668 5665 5662 5659 5659 5655 5652 5649 5646 5644 5644 5647 5647 5646 5646 5647 5647 5647 5645 5645 5644
5694 5689 5654 5652 5635 5653 5668 5667 5689 5703 5705 5709 5713 5703 5692 5687 5685 5684 5678 5678 5675 5673 5671 5672 5671 5669 5668 5664 5659 5655 5654 5652 5648 5644 5642 5637 5633 5631 5632 5632 5632 5631 5632 5632 5631 5630 5629 5628 5629
5689 5672 5679 5643 5635 5641 5647 5670 5691 5694 5694 5695 5693 5692 5689 5684 5681 5677 5671 5669 5666 5664 5663 5667 5665 5663 5659 5656 5653 5649 5645 5641 5636 5631 5629 5626 5622 5621 5619 5618 5618 5618 5617 5616 5615 5613 5611 5610 5609
5701 5682 5667 5646 5636 5637 5639 5652 5660 5680 5685 5682 5682 5687 5683 5678 5671 5669 5667 5664 5660 5658 5656 5657 5655 5655 5652 5647 5644 5639 5634 5629 5623 5618 5615 5612 5609 5608 5607 5607 5606 5604 5603 5601 5599 5598 5597 5595 5593
5673 5665 5651 5646 5635 5628 5626 5637 5666 5678 5679 5677 5679 5681 5679 5673 5668 5665 5664 5662 5660 5653 5647 5647 5646 5648 5643 5640 5634 5629 5621 5617 5612 5608 5604 5601 5598 5596 5592 5592 5592 5592 5590 5588 5587 5585 5583 5582 5581
5682 5671 5660 5636 5637 5619 5618 5628 5662 5666 5672 5672 5674 5676 5673 5671 5669 5665 5660 5656 5652 5645 5641 5640 5639 5638 5634 5631 5624 5617 5610 5606 5598 5595 5591 5589 5587 5583 5580 5579 5579 5578 5578 5576 5574 5570 5568 5567 5565